CAPE
0 0 0 1 0 0 1 1 1 1 1 1 1 2 3 4 3 2 0 1 3 1 1 0 0 1 0 0 0 0 25 12 0 0 0 0 0 0 0 0 0 0 0 0 0 0 0
0 0 1 1 1 1 1 2 2 1 1 1 1 1 1 2 2 0 0 1 0 0 0 0 0 0 0 0 0 0 0 0 0 0 0 0 0 0 0 0 0 0 0 0 0 0 0
0 1 3 4 3 2 2 3 4 3 2 1 1 1 1 1 1 0 0 0 0 0 0 0 0 0 0 0 0 0 0 0 0 0 0 0 0 0 0 0 0 0 0 0 0 0 0
4 6 6 5 6 6 5 6 4 4 3 2 1 1 1 1 0 0 0 0 0 0 0 0 0 0 0 0 0 0 0 0 0 0 0 0 0 0 0 0 0 0 0 0 0 0 0
8 6 6 6 5 4 4 2 2 1 1 2 1 1 0 0 0 0 0 0 0 0 0 0 0 0 0 0 0 0 0 0 0 0 0 0 0 0 0 0 0 0 0 0 0 0 0
9 8 9 8 8 5 3 3 2 2 0 1 1 1 0 0 0 0 0 0 0 0 0 0 0 0 0 0 0 0 0 0 0 0 0 0 0 0 0 0 0 0 0 0 0 0 0
13 12 11 7 5 7 5 3 1 3 0 0 2 1 0 0 0 0 0 0 0 0 0 0 0 0 0 0 0 0 0 0 0 0 0 0 0 0 0 0 0 0 0 0 0 0 0
8 6 5 4 10 7 5 2 4 1 1 0 3 1 0 0 0 0 0 0 0 0 0 0 0 0 0 0 0 0 0 0 0 0 0 0 0 0 0 0 0 0 0 0 0 0 0
3 1 2 3 4 8 8 5 1 4 1 0 2 1 0 0 0 0 0 0 0 0 0 0 0 0 0 0 0 0 0 0 0 0 0 0 0 0 0 0 0 0 0 0 0 0 0
2 2 2 4 5 6 8 7 5 2 2 2 1 1 0 0 0 0 0 0 0 0 0 0 0 0 0 0 0 0 0 0 0 0 0 0 0 0 0 0 0 0 0 0 0 0 0
2 1 2 3 3 3 1 7 6 4 0 0 0 0 0 0 0 0 0 0 0 0 0 0 0 0 0 0 0 0 0 0 0 0 0 0 0 0 0 0 0 0 0 0 0 0 0
2 2 2 2 2 2 3 5 5 2 1 0 0 0 0 0 0 0 0 0 0 0 0 0 0 0 0 0 0 0 0 0 0 0 0 0 0 0 0 0 0 0 0 0 0 0 0
2 2 2 2 2 2 3 3 5 3 0 0 0 0 0 0 0 0 0 0 0 0 0 0 0 0 0 0 0 0 0 0 0 0 0 0 0 0 0 0 0 0 0 0 0 0 0
5 3 4 3 2 3 3 3 5 1 0 0 0 0 0 0 0 0 0 0 0 0 0 0 0 0 0 0 0 0 0 0 0 0 0 0 0 0 0 0 0 0 0 0 0 0 0
3 4 3 3 4 3 3 3 4 0 0 0 0 0 0 0 0 0 0 0 0 0 0 0 0 0 0 0 0 0 0 0 0 0 0 0 0 0 0 0 0 0 0 0 0 0 0
4 4 3 4 4 3 3 3 3 0 1 0 0 0 0 0 0 0 0 0 0 0 0 0 0 0 0 0 0 0 0 0 0 0 0 0 0 0 0 0 0 0 0 0 0 0 0
8 3 5 4 5 4 3 3 3 0 0 0 0 0 0 0 0 0 0 0 0 0 0 0 0 0 0 0 0 0 0 0 0 0 0 0 0 0 0 0 0 0 0 0 0 0 0
8 5 6 6 4 4 4 5 4 0 0 0 0 0 0 0 0 0 0 0 0 0 0 0 0 0 0 0 0 0 0 0 0 0 0 0 0 0 0 0 0 0 0 0 0 0 0
12 13 13 12 9 4 4 3 3 2 0 9 0 0 0 0 0 0 0 0 0 0 0 0 0 0 0 0 0 0 0 0 0 0 0 0 0 0 0 0 0 0 0 0 0 0 0
5 8 10 12 15 16 7 3 3 1 1 3 0 0 0 0 0 0 0 0 0 0 0 0 0 0 0 0 0 0 0 0 0 0 0 0 0 0 0 0 0 0 0 0 0 0 0
21 16 14 16 18 15 16 13 3 2 0 0 0 0 0 0 0 0 0 0 0 0 0 0 0 0 0 0 0 0 0 0 0 0 0 0 0 0 0 0 0 0 0 0 0 0 0
24 23 19 18 19 16 16 7 6 1 0 0 0 0 0 0 0 0 0 0 0 0 0 0 0 0 0 0 0 0 0 0 0 0 0 0 0 0 0 0 0 0 0 0 0 0 0
23 23 24 17 17 17 10 9 9 2 0 0 0 0 0 0 0 0 0 0 0 0 0 0 0 0 0 0 0 0 0 0 0 0 0 0 0 0 0 0 0 0 0 0 0 0 2
25 31 27 13 19 7 9 9 17 4 0 5 5 2 0 0 0 0 0 0 0 0 0 0 0 0 0 0 0 0 0 0 0 0 0 0 0 0 0 0 0 0 0 0 0 3 59
21 25 35 25 24 7 6 7 13 4 0 10 6 3 0 0 0 0 0 0 0 0 0 0 0 0 0 0 0 0 0 0 0 0 0 0 0 0 0 0 0 0 0 11 34 35 62
29 26 33 33 20 19 6 7 6 12 3 6 9 22 6 0 0 0 0 0 0 0 0 0 0 0 0 0 0 0 0 0 0 0 0 0 0 0 0 0 0 70 146 62 102 92 87
47 36 34 37 28 22 16 5 8 10 7 13 15 24 24 3 0 0 0 7 2 0 0 0 0 0 0 0 0 0 0 1 0 0 16 0 10 2 1 1 2 120 202 190 118 264 201
66 52 48 43 40 30 21 15 5 8 10 21 9 24 35 15 0 0 1 4 11 10 7 32 0 0 0 0 0 0 2 4 2 0 0 0 23 48 43 51 65 202 247 226 354 362 289
86 85 73 59 41 35 23 18 10 11 10 11 14 25 56 57 0 1 0 0 3 8 18 20 13 19 18 3 0 5 8 11 10 2 5 3 16 31 31 147 297 86 87 101 206 363 535
CIN
-0 -0 -0 -0 -0 -0 -0 -0 -0 -0 -0 -0 -0 -0 -0 -0 -0 -0 -0 -0 -0 -0 -0 -0 -0 -0 -0 -0 -0 -0 -527 -100 -0 -0 -0 -0 -0 -0 -0 -0 -0 -0 -0 -0 -0 -0 -0
-0 -0 -0 -0 -0 -0 -0 -0 -0 -0 -0 -0 -0 -0 -0 -0 -0 -0 -0 -0 -0 -0 -0 -0 -0 -0 -0 -0 -0 -0 -0 -0 -0 -0 -0 -0 -0 -0 -0 -0 -0 -0 -0 -0 -0 -0 -0
-0 -0 -0 -0 -0 -0 -0 -0 -0 -0 -0 -0 -0 -0 -0 -0 -0 -0 -0 -0 -0 -0 -0 -0 -0 -0 -0 -0 -0 -0 -0 -0 -0 -0 -0 -0 -0 -0 -0 -0 -0 -0 -0 -0 -0 -0 -0
-0 -0 -0 -0 -0 -0 -0 -0 -0 -0 -0 -0 -0 -0 -0 -0 -0 -0 -0 -0 -0 -0 -0 -0 -0 -0 -0 -0 -0 -0 -0 -0 -0 -0 -0 -0 -0 -0 -0 -0 -0 -0 -0 -0 -0 -0 -0
-0 -0 -0 -0 -0 -0 -0 -0 -0 -0 -0 -0 -0 -0 -0 -0 -0 -0 -0 -0 -0 -0 -0 -0 -0 -0 -0 -0 -0 -0 -0 -0 -0 -0 -0 -0 -0 -0 -0 -0 -0 -0 -0 -0 -0 -0 -0
-1 -1 -0 -0 -0 -0 -0 -0 -0 -0 -0 -0 -0 -0 -0 -0 -0 -0 -0 -0 -0 -0 -0 -0 -0 -0 -0 -0 -0 -0 -0 -0 -0 -0 -0 -0 -0 -0 -0 -0 -0 -0 -0 -0 -0 -0 -0
-0 -0 -0 -0 -0 -0 -0 -0 -0 -0 -0 -0 -0 -0 -0 -0 -0 -0 -0 -0 -0 -0 -0 -0 -0 -0 -0 -0 -0 -0 -0 -0 -0 -0 -0 -0 -0 -0 -0 -0 -0 -0 -0 -0 -0 -0 -0
-0 -0 -0 -0 -0 -0 -0 -0 -0 -0 -0 -0 -0 -0 -0 -0 -0 -0 -0 -0 -0 -0 -0 -0 -0 -0 -0 -0 -0 -0 -0 -0 -0 -0 -0 -0 -0 -0 -0 -0 -0 -0 -0 -0 -0 -0 -0
-0 -0 -0 -0 -0 -0 -0 -0 -0 -0 -0 -0 -0 -0 -0 -0 -0 -0 -0 -0 -0 -0 -0 -0 -0 -0 -0 -0 -0 -0 -0 -0 -0 -0 -0 -0 -0 -0 -0 -0 -0 -0 -0 -0 -0 -0 -0
-0 -0 -0 -0 -0 -0 -0 -0 -0 -0 -0 -0 -0 -0 -0 -0 -0 -0 -0 -0 -0 -0 -0 -0 -0 -0 -0 -0 -0 -0 -0 -0 -0 -0 -0 -0 -0 -0 -0 -0 -0 -0 -0 -0 -0 -0 -0
-0 -0 -0 -0 -0 -0 -0 -0 -0 -0 -0 -0 -0 -0 -0 -0 -0 -0 -0 -0 -0 -0 -0 -0 -0 -0 -0 -0 -0 -0 -0 -0 -0 -0 -0 -0 -0 -0 -0 -0 -0 -0 -0 -0 -0 -0 -0
-0 -0 -0 -0 -0 -0 -0 -0 -0 -0 -0 -0 -0 -0 -0 -0 -0 -0 -0 -0 -0 -0 -0 -0 -0 -0 -0 -0 -0 -0 -0 -0 -0 -0 -0 -0 -0 -0 -0 -0 -0 -0 -0 -0 -0 -0 -0
-0 -0 -0 -0 -0 -0 -0 -0 -0 -0 -0 -0 -0 -0 -0 -0 -0 -0 -0 -0 -0 -0 -0 -0 -0 -0 -0 -0 -0 -0 -0 -0 -0 -0 -0 -0 -0 -0 -0 -0 -0 -0 -0 -0 -0 -0 -0
-0 -0 -0 -0 -0 -0 -0 -0 -0 -0 -0 -0 -0 -0 -0 -0 -0 -0 -0 -0 -0 -0 -0 -0 -0 -0 -0 -0 -0 -0 -0 -0 -0 -0 -0 -0 -0 -0 -0 -0 -0 -0 -0 -0 -0 -0 -0
-0 -0 -0 -0 -0 -0 -0 -0 -0 -0 -0 -0 -0 -0 -0 -0 -0 -0 -0 -0 -0 -0 -0 -0 -0 -0 -0 -0 -0 -0 -0 -0 -0 -0 -0 -0 -0 -0 -0 -0 -0 -0 -0 -0 -0 -0 -0
-0 -0 -0 -0 -0 -0 -0 -0 -0 -0 -0 -0 -0 -0 -0 -0 -0 -0 -0 -0 -0 -0 -0 -0 -0 -0 -0 -0 -0 -0 -0 -0 -0 -0 -0 -0 -0 -0 -0 -0 -0 -0 -0 -0 -0 -0 -0
-0 -0 -0 -0 -0 -0 -0 -0 -0 -0 -0 -0 -0 -0 -0 -0 -0 -0 -0 -0 -0 -0 -0 -0 -0 -0 -0 -0 -0 -0 -0 -0 -0 -0 -0 -0 -0 -0 -0 -0 -0 -0 -0 -0 -0 -0 -0
-0 -0 -0 -0 -0 -0 -0 -0 -0 -0 -0 -0 -0 -0 -0 -0 -0 -0 -0 -0 -0 -0 -0 -0 -0 -0 -0 -0 -0 -0 -0 -0 -0 -0 -0 -0 -0 -0 -0 -0 -0 -0 -0 -0 -0 -0 -0
-1 -2 -1 -0 -0 -0 -0 -0 -0 -0 -0 -0 -0 -0 -0 -0 -0 -0 -0 -0 -0 -0 -0 -0 -0 -0 -0 -0 -0 -0 -0 -0 -0 -0 -0 -0 -0 -0 -0 -0 -0 -0 -0 -0 -0 -0 -0
-2 -2 -3 -2 -0 -0 -0 -0 -0 -0 -0 -0 -0 -0 -0 -0 -0 -0 -0 -0 -0 -0 -0 -0 -0 -0 -0 -0 -0 -0 -0 -0 -0 -0 -0 -0 -0 -0 -0 -0 -0 -0 -0 -0 -0 -0 -0
-2 -1 -1 -1 -1 -0 -0 -0 -0 -0 -0 -0 -0 -0 -0 -0 -0 -0 -0 -0 -0 -0 -0 -0 -0 -0 -0 -0 -0 -0 -0 -0 -0 -0 -0 -0 -0 -0 -0 -0 -0 -0 -0 -0 -0 -0 -0
-4 -5 -2 -1 -1 -0 -0 -0 -0 -0 -0 -0 -0 -0 -0 -0 -0 -0 -0 -0 -0 -0 -0 -0 -0 -0 -0 -0 -0 -0 -0 -0 -0 -0 -0 -0 -0 -0 -0 -0 -0 -0 -0 -0 -0 -0 -0
-3 -4 -3 -3 -2 -0 -0 -0 -0 -2 -0 -0 -0 -0 -0 -0 -0 -0 -0 -0 -0 -0 -0 -0 -0 -0 -0 -0 -0 -0 -0 -0 -0 -0 -0 -0 -0 -0 -0 -0 -0 -0 -0 -0 -0 -0 -0
-3 -5 -3 -6 -3 -4 -0 -1 -1 -2 -1 -0 -0 -0 -0 -0 -0 -0 -0 -0 -0 -0 -0 -0 -0 -0 -0 -0 -0 -0 -0 -0 -0 -0 -0 -0 -0 -0 -0 -0 -0 -0 -0 -0 -0 -0 -0
-0 -3 -5 -5 -5 -4 -2 -2 -1 -0 -0 -0 -0 -0 -0 -0 -0 -0 -0 -0 -0 -0 -0 -0 -0 -0 -0 -0 -0 -0 -0 -0 -0 -0 -0 -0 -0 -0 -0 -0 -0 -0 -0 -1 -0 -1 -10
-0 -0 -6 -4 -5 -2 -5 -2 -2 -2 -9 -0 -0 -0 -0 -0 -0 -0 -0 -0 -0 -0 -0 -0 -0 -0 -0 -0 -0 -0 -0 -0 -0 -0 -0 -0 -0 -0 -0 -0 -0 -0 -11 -22 -19 -6 -7
-0 -0 -3 -6 -10 -7 -6 -5 -3 -2 -6 -0 -0 -0 -0 -0 -0 -0 -0 -0 -0 -0 -0 -0 -0 -0 -0 -0 -0 -0 -0 -0 -0 -0 -0 -0 -0 -0 -0 -0 -0 -3 -7 -14 -1 -2 -3
-0 -0 -3 -5 -11 -7 -6 -6 -2 -2 -3 -0 -0 -0 -0 -0 -0 -0 -0 -0 -0 -0 -0 -1 -0 -0 -0 -0 -0 -0 -0 -0 -0 -0 -0 -0 -0 -0 -0 -0 -0 -8 -5 -0 -2 -10 -6
-0 -0 -2 -3 -9 -11 -8 -6 -6 -4 -7 -6 -0 -0 -0 -0 -0 -0 -0 -0 -0 -0 -2 -0 -0 -0 -0 -0 -0 -0 -0 -0 -0 -0 -1 -0 -0 -0 -0 -0 -12 -23 -25 -28 -27 -14 -7
Wind_Speed
15 15 15 15 16 16 18 19 19 20 21 22 22 22 22 22 21 21 20 19 15 12 9 8 7 7 7 7 5 7 12 13 18 9 13 10 9 7 8 4 4 10 9 7 10 12 11
15 15 15 15 16 17 18 19 20 20 21 22 23 23 23 22 22 21 20 18 14 8 5 5 7 7 7 5 4 7 13 17 13 10 9 8 4 4 2 4 7 6 10 12 6 2 2
15 15 16 16 17 17 18 19 20 21 22 22 23 24 23 23 22 21 19 17 13 4 5 7 8 6 5 8 3 9 12 6 11 8 6 7 4 9 0 5 1 9 10 4 2 2 3
15 15 15 16 17 18 19 20 21 22 22 23 24 24 24 24 22 20 18 14 7 5 7 8 9 6 4 4 6 9 7 6 7 4 3 2 5 5 6 2 7 6 6 9 8 5 4
14 15 16 17 17 18 19 21 22 24 23 24 24 25 25 24 23 19 16 11 2 5 6 8 8 6 9 5 6 8 9 4 8 5 4 3 6 5 6 10 8 6 0 1 5 3 4
13 13 15 18 18 18 20 21 22 23 24 24 25 25 25 25 24 18 14 7 4 7 7 7 5 6 7 6 6 6 7 6 4 8 7 8 7 8 7 8 2 4 2 3 0 4 3
16 17 15 17 18 19 20 22 23 23 25 25 25 25 26 25 24 19 9 6 6 7 6 6 4 3 5 1 4 8 8 9 6 7 7 5 9 3 6 3 4 4 5 4 3 3 5
18 18 19 19 19 19 20 20 23 24 25 26 26 26 27 26 25 19 9 5 5 6 4 2 3 5 5 2 5 9 10 10 8 6 5 8 2 3 2 3 5 5 5 2 2 1 8
17 19 19 20 20 19 20 21 22 23 26 27 25 25 27 26 23 7 7 7 6 3 6 4 1 1 2 8 5 12 12 4 5 6 6 5 9 5 4 5 7 3 6 5 8 7 9
17 18 19 20 21 21 21 22 23 24 25 27 26 24 24 32 6 4 3 5 8 5 7 8 6 6 7 4 6 3 8 3 5 2 4 2 5 1 0 3 6 3 5 8 10 11 9
18 19 19 20 21 23 23 24 24 24 25 26 26 24 22 12 8 3 6 9 2 6 6 6 7 5 4 6 6 7 4 6 4 5 7 8 3 3 4 4 5 7 8 9 12 13 10
18 19 20 21 22 23 24 24 24 25 26 27 27 25 22 5 4 5 8 6 6 8 3 7 5 6 10 6 5 6 6 5 3 4 3 3 2 2 4 1 2 8 9 13 8 10 11
18 18 20 21 22 23 24 25 25 26 27 29 29 26 13 4 5 8 8 5 7 7 4 7 5 5 5 5 7 6 10 11 8 9 9 6 6 6 2 8 7 9 10 7 6 7 3
17 19 19 21 22 23 24 25 26 27 27 30 30 24 5 4 7 7 6 7 7 3 0 3 2 6 7 4 4 6 8 9 3 7 4 6 9 7 2 5 7 4 8 6 7 6 6
16 17 19 20 21 22 24 25 26 26 27 30 30 3 4 4 3 6 7 8 4 0 1 3 7 10 7 6 3 7 3 3 2 2 5 4 5 5 3 1 6 6 2 6 9 7 9
16 17 18 19 20 22 24 26 27 27 28 28 8 6 1 8 4 7 6 5 1 2 3 5 9 4 9 6 9 8 8 3 6 2 3 4 6 6 6 4 4 7 4 7 4 7 9
16 17 18 19 20 21 22 24 26 27 32 27 6 6 6 7 5 6 7 1 2 2 3 5 4 5 3 4 4 4 4 6 0 5 2 2 5 8 5 10 4 8 9 3 7 6 9
15 16 17 18 20 21 22 22 24 25 33 9 5 5 5 6 6 1 5 0 1 2 2 4 4 3 6 4 5 5 7 2 2 1 4 2 6 9 7 6 3 6 5 8 7 5 8
13 14 15 17 18 20 21 22 22 21 21 8 7 4 1 5 6 7 4 4 2 3 0 3 6 4 3 5 4 3 5 5 2 1 1 2 5 9 12 11 9 9 8 9 8 7 12
9 12 14 15 16 18 19 21 21 22 21 7 6 3 4 2 2 7 3 5 6 2 2 2 1 5 7 7 4 6 7 5 2 4 2 2 8 9 12 13 8 9 12 11 12 9 15
8 8 9 12 13 15 18 19 21 22 22 7 2 4 5 1 5 3 5 2 7 7 2 2 5 5 8 8 8 7 5 7 6 6 5 5 9 12 12 14 16 16 18 16 19 20 20
12 11 8 8 11 12 15 17 19 21 28 5 6 5 1 4 4 6 5 6 8 4 4 5 7 1 4 8 7 6 7 4 5 7 7 2 9 10 15 16 17 20 20 21 22 21 19
15 11 9 7 8 10 12 14 16 16 18 4 3 1 6 2 4 6 5 4 4 3 4 2 4 7 8 6 4 4 6 2 3 6 7 6 8 7 14 6 9 14 19 18 14 11 12
13 12 10 10 8 8 10 12 12 12 12 3 4 6 5 6 4 5 3 4 6 2 6 1 5 6 7 7 4 6 9 8 8 9 9 8 7 8 10 6 13 5 3 3 6 9 5
11 12 11 9 8 7 7 9 10 11 11 5 3 5 4 7 5 7 10 10 7 7 9 8 7 5 6 6 8 9 10 12 14 6 9 9 8 7 8 10 11 12 9 5 6 10 3
12 11 12 9 9 8 5 5 7 7 10 8 3 0 4 6 2 5 8 8 10 11 11 11 8 6 6 8 10 15 12 7 6 9 6 8 6 8 8 9 11 7 6 1 2 9 5
12 11 11 10 9 9 7 4 4 5 5 6 3 2 4 5 8 9 8 6 5 7 8 3 4 9 7 10 12 13 14 12 13 13 9 11 10 12 11 11 8 7 5 3 9 6 6
12 13 12 11 9 9 8 8 4 3 3 4 5 3 2 4 10 13 10 9 10 7 7 7 8 9 7 12 12 11 10 8 13 13 10 11 10 8 9 10 12 8 5 7 9 9 8
13 12 12 10 11 9 8 8 7 4 2 2 5 2 2 4 9 14 14 17 16 17 10 7 10 5 5 6 6 6 10 5 9 11 9 11 10 8 5 3 5 2 4 8 9 11 9
Wind_Direction
9 7 7 4 359 357 353 350 346 342 338 335 332 329 328 328 325 323 321 316 310 302 281 266 249 233 229 204 81 64 118 143 168 187 188 195 199 227 236 236 239 250 292 300 293 296 294
7 5 3 1 358 354 352 348 344 340 335 332 331 330 328 329 328 327 325 320 314 299 257 220 208 209 238 173 92 124 130 151 178 193 188 216 234 247 258 250 264 353 292 291 293 342 157
6 3 1 358 357 353 350 347 343 339 334 332 331 329 329 330 330 329 327 325 318 288 193 188 192 236 245 79 99 147 160 172 171 200 191 205 232 224 123 245 275 281 281 166 130 14 98
5 2 2 360 357 353 349 346 344 340 335 332 331 329 329 330 331 331 328 328 4 121 147 169 190 242 65 112 115 163 180 144 183 218 263 172 230 271 267 334 234 259 250 184 100 337 61
6 5 4 0 358 355 351 348 345 341 337 333 330 330 329 329 330 332 327 323 94 134 143 160 216 266 120 133 201 176 196 190 167 169 151 148 224 268 211 239 205 212 68 288 132 92 326
2 2 3 359 355 352 351 347 343 341 338 336 331 329 329 327 328 331 321 269 116 159 191 229 258 230 158 130 117 135 185 183 163 153 168 213 222 227 202 241 343 357 289 128 242 69 232
7 2 358 358 353 351 350 347 344 342 340 335 332 329 329 328 328 325 294 197 220 176 207 342 17 320 102 55 199 184 174 190 191 218 222 195 234 210 23 331 337 306 298 305 116 82 261
2 357 357 355 350 346 345 345 344 341 338 336 334 331 329 330 326 314 273 47 40 345 296 189 279 261 249 288 176 150 181 201 206 200 190 203 180 59 276 293 253 242 277 42 196 144 270
1 359 358 354 350 347 345 343 339 340 338 335 334 333 328 327 319 294 43 52 332 243 259 125 172 212 140 205 200 160 198 187 221 190 208 293 73 113 198 174 215 141 330 357 326 311 239
2 360 359 354 352 351 347 344 339 336 336 333 331 332 330 323 297 357 65 350 315 227 242 132 159 124 164 233 169 139 209 268 194 60 183 176 101 59 194 64 305 270 5 301 296 296 301
3 1 359 356 354 352 349 345 341 337 333 330 330 331 329 330 321 304 357 326 304 226 224 136 125 100 157 249 110 151 183 220 217 131 240 96 183 200 242 58 333 16 319 308 301 280 283
1 360 358 357 355 353 350 345 342 338 333 329 329 329 328 215 228 356 313 314 226 230 159 143 148 176 189 181 138 132 177 212 330 221 231 80 159 288 33 189 300 310 258 247 258 262 237
360 359 358 356 355 353 350 346 341 338 334 330 327 322 308 300 356 329 304 227 235 256 146 150 152 199 203 155 152 209 185 187 223 201 190 165 158 124 330 247 190 304 315 288 232 204 347
358 358 357 356 355 353 350 348 342 337 334 329 324 315 171 286 310 305 262 234 253 45 198 119 199 180 208 175 150 174 194 187 180 254 243 244 173 189 35 10 338 7 324 323 301 304 329
356 356 356 355 354 352 351 348 343 335 335 330 311 295 230 23 322 282 271 236 347 190 25 228 182 213 162 157 256 184 224 146 74 271 268 219 167 133 89 3 291 101 291 360 278 206 255
353 354 354 354 354 353 352 350 345 340 336 331 312 300 179 337 284 261 253 278 186 355 311 227 238 261 208 171 208 217 187 141 136 83 302 94 263 180 131 222 112 335 66 233 196 276 295
350 351 352 353 353 353 353 352 347 345 339 323 266 281 79 348 250 238 255 50 194 111 312 241 211 194 225 194 267 192 160 121 175 126 307 261 258 148 186 208 321 176 206 247 291 280 308
349 351 352 353 352 353 353 353 350 351 342 332 306 252 41 314 243 239 235 208 302 221 202 222 268 269 227 190 197 199 188 24 75 284 237 70 279 273 297 72 301 278 294 275 294 278 260
342 344 346 351 352 352 352 353 351 354 3 315 322 300 4 294 250 208 144 182 263 252 231 215 196 256 216 193 191 208 150 100 82 252 8 147 254 263 217 180 192 230 228 261 277 280 264
320 332 337 341 347 349 349 352 352 348 347 311 288 274 157 201 329 300 216 204 201 153 204 306 276 218 191 195 213 176 181 138 115 89 26 220 273 269 287 329 340 276 265 246 262 274 289
298 309 329 335 341 344 346 349 350 345 336 291 268 67 1 16 113 307 259 357 234 208 206 255 190 250 219 211 209 214 195 167 175 136 208 274 270 283 268 283 281 273 269 271 270 268 273
305 298 312 332 337 342 345 350 351 346 332 262 317 329 315 287 279 265 155 204 247 177 262 179 259 190 212 242 237 221 233 226 267 160 250 223 279 277 276 273 266 269 265 265 266 271 279
312 304 302 311 331 336 345 350 352 354 338 324 26 230 279 135 233 245 247 255 227 265 173 328 322 278 219 98 328 332 297 321 321 284 275 271 284 259 278 302 296 258 250 254 263 267 278
302 313 294 298 304 322 343 351 352 358 355 317 16 292 270 259 247 264 325 275 240 276 304 296 298 256 53 313 268 247 242 237 236 239 247 246 241 260 265 276 252 66 90 332 283 290 275
293 300 302 291 289 307 338 342 348 353 352 326 312 320 294 269 299 274 254 257 255 244 260 278 271 358 310 275 240 232 231 235 239 243 213 223 230 256 255 249 288 265 180 230 255 298 34
280 290 296 302 290 289 282 326 340 344 353 304 307 194 294 301 251 325 281 277 270 256 249 248 237 282 280 260 228 240 235 241 199 171 219 198 242 258 250 273 278 66 119 101 311 250 112
275 274 287 295 283 287 286 274 322 332 352 320 279 309 272 262 282 286 274 335 296 274 278 299 246 233 234 243 240 238 239 234 238 236 180 208 228 238 238 252 264 66 104 145 244 45 349
265 262 265 274 278 286 277 276 260 290 337 323 296 224 234 261 289 289 287 276 258 245 275 67 252 201 239 235 247 245 243 227 229 254 249 236 233 222 233 257 248 110 162 260 1 325 299
257 259 264 259 268 272 263 264 266 221 245 335 273 244 250 234 293 313 287 278 272 287 292 273 277 311 324 272 236 265 240 242 249 249 182 246 246 306 253 17 91 344 327 317 300 287 286